• Em Portugal
  • Lista de países
  • Para 7 dias
  • Temperatura da água
  • Mapas de satélite
  • Mapa do tempo
  • Widgets de tempo
  • user-avatar
    Iniciar Sessão

    Previsão horária em Lalitpur

    Hoje, 15 Dezembro, Sexta-feira

    Tempo Temperatura Precipitação Vento Pressão Humidade
    00:00 +10°C° 0 mm 3 m/s 652 mmHg 13%
    01:00 +10°C° 0 mm 3 m/s 652 mmHg 12%
    02:00 +10°C° 0 mm 3 m/s 652 mmHg 11%
    03:00 +10°C° 0 mm 3 m/s 651 mmHg 11%
    04:00 +9°C° 0 mm 3 m/s 651 mmHg 11%
    05:00 +9°C° 0 mm 3 m/s 651 mmHg 10%
    06:00 +9°C° 0 mm 3 m/s 651 mmHg 10%
    07:00 +12°C° 0 mm 2 m/s 652 mmHg 12%
    08:00 +14°C° 0 mm 2 m/s 653 mmHg 14%
    09:00 +18°C° 0 mm 1 m/s 654 mmHg 15%
    10:00 +18°C° 0 mm 2 m/s 654 mmHg 13%
    11:00 +20°C° 0 mm 2 m/s 655 mmHg 12%
    12:00 +23°C° 0 mm 2 m/s 655 mmHg 10%
    13:00 +23°C° 0 mm 2 m/s 655 mmHg 11%
    14:00 +23°C° 0 mm 2 m/s 654 mmHg 12%
    15:00 +21°C° 0 mm 2 m/s 654 mmHg 13%
    16:00 +18°C° 0 mm 2 m/s 653 mmHg 17%
    17:00 +15°C° 0 mm 2 m/s 653 mmHg 21%
    18:00 +12°C° 0 mm 2 m/s 651 mmHg 29%
    19:00 +10°C° 0 mm 2 m/s 652 mmHg 25%
    20:00 +10°C° 0 mm 2 m/s 652 mmHg 22%
    21:00 +10°C° 0 mm 2 m/s 652 mmHg 19%
    22:00 +10°C° 0 mm 2 m/s 652 mmHg 18%
    23:00 +10°C° 0 mm 2 m/s 652 mmHg 16%

    Amanhã, 16 Dezembro, Sábado

    Tempo Temperatura Precipitação Vento Pressão Humidade
    00:00 +10°C° 0 mm 2 m/s 652 mmHg 14%
    01:00 +10°C° 0 mm 2 m/s 652 mmHg 13%
    02:00 +10°C° 0 mm 2 m/s 652 mmHg 12%
    03:00 +10°C° 0 mm 2 m/s 652 mmHg 12%
    04:00 +10°C° 0 mm 2 m/s 652 mmHg 12%
    05:00 +10°C° 0 mm 2 m/s 652 mmHg 12%
    06:00 +10°C° 0 mm 2 m/s 652 mmHg 12%
    07:00 +13°C° 0 mm 2 m/s 653 mmHg 13%
    08:00 +15°C° 0 mm 1 m/s 654 mmHg 15%
    09:00 +18°C° 0 mm 1 m/s 655 mmHg 16%
    10:00 +20°C° 0 mm 1 m/s 655 mmHg 16%
    11:00 +20°C° 0 mm 2 m/s 655 mmHg 15%
    12:00 +23°C° 0 mm 2 m/s 655 mmHg 14%
    13:00 +21°C° 0 mm 2 m/s 655 mmHg 15%
    14:00 +21°C° 0 mm 2 m/s 654 mmHg 17%
    15:00 +21°C° 0 mm 2 m/s 654 mmHg 18%
    16:00 +18°C° 0 mm 2 m/s 653 mmHg 24%
    17:00 +15°C° 0 mm 2 m/s 653 mmHg 30%
    18:00 +12°C° 0 mm 1 m/s 652 mmHg 36%
    19:00 +12°C° 0 mm 2 m/s 653 mmHg 33%
    20:00 +12°C° 0 mm 2 m/s 653 mmHg 29%
    21:00 +12°C° 0 mm 2 m/s 654 mmHg 26%
    22:00 +12°C° 0 mm 2 m/s 654 mmHg 23%
    23:00 +10°C° 0 mm 2 m/s 654 mmHg 21%

    Depois de amanhã, 17 Dezembro, Domingo

    Tempo Temperatura Precipitação Vento Pressão Humidade
    00:00 +10°C° 0 mm 2 m/s 654 mmHg 18%
    01:00 +10°C° 0 mm 2 m/s 654 mmHg 17%
    02:00 +10°C° 0 mm 2 m/s 653 mmHg 16%
    03:00 +10°C° 0 mm 2 m/s 653 mmHg 15%
    04:00 +10°C° 0 mm 2 m/s 653 mmHg 14%
    05:00 +10°C° 0 mm 2 m/s 653 mmHg 13%
    06:00 +9°C° 0 mm 2 m/s 653 mmHg 13%
    07:00 +13°C° 0 mm 2 m/s 654 mmHg 14%
    08:00 +15°C° 0 mm 1 m/s 655 mmHg 15%
    09:00 +18°C° 0 mm 1 m/s 656 mmHg 16%
    10:00 +19°C° 0 mm 1 m/s 656 mmHg 15%
    11:00 +21°C° 0 mm 1 m/s 657 mmHg 15%
    12:00 +23°C° 0 mm 2 m/s 657 mmHg 14%
    13:00 +21°C° 0 mm 2 m/s 656 mmHg 16%
    14:00 +21°C° 0 mm 2 m/s 655 mmHg 17%
    15:00 +21°C° 0 mm 2 m/s 655 mmHg 19%
    16:00 +18°C° 0 mm 2 m/s 654 mmHg 27%
    17:00 +15°C° 0 mm 1 m/s 653 mmHg 35%
    18:00 +12°C° 0 mm 1 m/s 652 mmHg 42%
    19:00 +12°C° 0 mm 1 m/s 653 mmHg 41%
    20:00 +11°C° 0 mm 1 m/s 653 mmHg 39%
    21:00 +10°C° 0 mm 2 m/s 653 mmHg 37%
    22:00 +10°C° 0 mm 2 m/s 653 mmHg 35%
    23:00 +10°C° 0 mm 2 m/s 653 mmHg 33%

    18 Dezembro, Segunda-feira

    Tempo Temperatura Precipitação Vento Pressão Humidade
    00:00 +10°C° 0 mm 2 m/s 653 mmHg 31%
    01:00 +10°C° 0 mm 2 m/s 653 mmHg 30%
    02:00 +10°C° 0 mm 2 m/s 652 mmHg 28%
    03:00 +9°C° 0 mm 2 m/s 652 mmHg 26%
    04:00 +9°C° 0 mm 2 m/s 652 mmHg 25%
    05:00 +9°C° 0 mm 2 m/s 652 mmHg 24%
    06:00 +9°C° 0 mm 2 m/s 652 mmHg 22%
    07:00 +12°C° 0 mm 1 m/s 653 mmHg 22%
    08:00 +15°C° 0 mm 1 m/s 655 mmHg 22%
    09:00 +16°C° 0 mm 0 m/s 656 mmHg 21%
    10:00 +19°C° 0 mm 1 m/s 656 mmHg 21%
    11:00 +21°C° 0 mm 1 m/s 656 mmHg 20%
    12:00 +21°C° 0 mm 2 m/s 656 mmHg 19%
    13:00 +21°C° 0 mm 2 m/s 656 mmHg 21%
    14:00 +21°C° 0 mm 2 m/s 655 mmHg 23%
    15:00 +21°C° 0 mm 2 m/s 655 mmHg 25%
    16:00 +18°C° 0 mm 2 m/s 654 mmHg 34%
    17:00 +15°C° 0 mm 1 m/s 653 mmHg 42%
    18:00 +12°C° 0 mm 1 m/s 652 mmHg 51%
    19:00 +12°C° 0 mm 1 m/s 653 mmHg 50%
    20:00 +12°C° 0 mm 1 m/s 653 mmHg 49%
    21:00 +12°C° 0 mm 2 m/s 654 mmHg 48%
    22:00 +12°C° 0 mm 2 m/s 654 mmHg 46%
    23:00 +12°C° 0 mm 2 m/s 653 mmHg 44%

    19 Dezembro, Terça-feira

    Tempo Temperatura Precipitação Vento Pressão Humidade
    00:00 +10°C° 0 mm 2 m/s 653 mmHg 42%
    01:00 +10°C° 0 mm 2 m/s 653 mmHg 40%
    02:00 +10°C° 0 mm 2 m/s 653 mmHg 38%
    03:00 +10°C° 0 mm 2 m/s 652 mmHg 36%
    04:00 +10°C° 0 mm 2 m/s 652 mmHg 35%
    05:00 +10°C° 0 mm 2 m/s 652 mmHg 33%
    06:00 +10°C° 0 mm 2 m/s 652 mmHg 32%
    07:00 +13°C° 0 mm 1 m/s 653 mmHg 30%
    08:00 +15°C° 0 mm 1 m/s 655 mmHg 28%
    09:00 +16°C° 0 mm 0 m/s 656 mmHg 27%
    10:00 +20°C° 0 mm 1 m/s 656 mmHg 25%
    11:00 +20°C° 0 mm 2 m/s 656 mmHg 23%
    12:00 +23°C° 0 mm 2 m/s 657 mmHg 22%
    13:00 +21°C° 0 mm 2 m/s 656 mmHg 23%
    14:00 +21°C° 0 mm 2 m/s 655 mmHg 25%
    15:00 +21°C° 0 mm 2 m/s 655 mmHg 27%
    16:00 +18°C° 0 mm 2 m/s 654 mmHg 35%
    17:00 +15°C° 0 mm 1 m/s 653 mmHg 43%
    18:00 +13°C° 0 mm 1 m/s 653 mmHg 52%
    19:00 +12°C° 0 mm 1 m/s 653 mmHg 51%
    20:00 +12°C° 0 mm 1 m/s 654 mmHg 50%
    21:00 +12°C° 0 mm 1 m/s 654 mmHg 50%
    22:00 +12°C° 0 mm 1 m/s 654 mmHg 48%
    23:00 +12°C° 0 mm 1 m/s 654 mmHg 46%

    20 Dezembro, Quarta-feira

    Tempo Temperatura Precipitação Vento Pressão Humidade
    00:00 +12°C° 0 mm 1 m/s 654 mmHg 44%
    01:00 +12°C° 0 mm 1 m/s 653 mmHg 43%
    02:00 +12°C° 0 mm 1 m/s 653 mmHg 42%
    03:00 +12°C° 0 mm 1 m/s 653 mmHg 40%
    04:00 +12°C° 0 mm 1 m/s 653 mmHg 39%
    05:00 +12°C° 0 mm 1 m/s 653 mmHg 38%
    06:00 +12°C° 0 mm 1 m/s 653 mmHg 37%
    07:00 +13°C° 0 mm 1 m/s 654 mmHg 35%
    08:00 +15°C° 0 mm 1 m/s 656 mmHg 33%
    09:00 +16°C° 0 mm 0 m/s 657 mmHg 31%
    10:00 +20°C° 0 mm 1 m/s 657 mmHg 28%
    11:00 +21°C° 0 mm 1 m/s 657 mmHg 26%
    12:00 +23°C° 0 mm 2 m/s 657 mmHg 24%
    13:00 +21°C° 0 mm 2 m/s 657 mmHg 25%
    14:00 +21°C° 0 mm 2 m/s 656 mmHg 27%
    15:00 +21°C° 0 mm 2 m/s 655 mmHg 28%
    16:00 +18°C° 0 mm 2 m/s 655 mmHg 36%
    17:00 +16°C° 0 mm 1 m/s 654 mmHg 44%
    18:00 +13°C° 0 mm 1 m/s 654 mmHg 53%
    19:00 +13°C° 0 mm 1 m/s 654 mmHg 53%
    20:00 +12°C° 0 mm 1 m/s 654 mmHg 53%
    21:00 +12°C° 0 mm 2 m/s 654 mmHg 53%
    22:00 +12°C° 0 mm 2 m/s 654 mmHg 50%
    23:00 +12°C° 0 mm 2 m/s 654 mmHg 47%
    Mostrar mais